Location: Focicchia
(42.2496°N, 9.2935°E)
Time: 03:28:54
(UTC+00:00)

Cosmos 2221 - Pass Details

Date: 07 June 2020
Orbit: 594 x 615 km, 82.5° (Epoch: 07 July)

Event Time Altitude Azimuth Distance (km) Brightness Sun altitude
Rises 02:08:31 0° 339° (NNW) 2,881 6.4 -14.4°
Reaches altitude 10° 02:11:00 10° 327° (NNW) 1,975 5.4 -14.1°
Maximum altitude 02:14:37 26° 271° (W) 1,223 3.7 -13.7°
Enters shadow 02:16:17 20° 237° (WSW) 1,415 3.8 -13.5°
